[[{"header":{"parameterUnit":"m.s-1","parameterCategory":1,"la1":30.2991,"la2":30.254,"lo1":-89.0895,"lo2":-89.0444,"dy":0.0017,"dx":0.0017,"nx":28,"ny":28,"refTime":"2026-02-05T09:00:00:Z","depth":0,"parameterNumber":2,"parameterNumberName":"U-component_of_WINDS"},"data":[0,0,0,0,0,0,0,0,0,0,0,0,0,0,0,0,0,0,0,0,0,0,0,0,0,0,0,0,0,0,0,0,0,0,0,0,0,0,0,0,0,0,0,0,0,0,0,0,0,0,0,0,0,0,0,0,0,0,4.1969,4.197,0,4.1975,4.1975,4.1975,4.1914,4.1912,4.1911,4.1909,4.1917,4.1919,4.1921,0,0,0,0,0,0,0,0,0,0,0,0,0,4.1912,4.1913,4.1969,4.197,4.197,4.1975,4.1975,4.1975,4.1914,4.1912,4.191,4.1908,4.1917,4.1919,4.1921,0,0,0,0,0,0,0,0,0,0,0,0,0,4.1929,4.1913,4.1969,4.194,4.1937,4.1975,4.1975,4.1975,4.1915,4.1912,4.191,4.1907,4.1916,4.1919,4.1921,4.1989,0,0,4.193,4.1931,0,0,0,0,0,0,0,0,4.1928,4.1931,4.1944,4.1942,4.1939,4.1941,4.1958,4.198,4.1915,4.1923,4.1909,4.1906,4.1928,4.1929,4.1936,4.1989,4.199,4.193,4.1932,4.1933,4.1934,0,0,0,0,0,0,0,4.1927,4.1931,4.1972,4.1944,4.1941,4.1928,4.1928,4.1962,4.194,4.1922,4.1918,4.1919,4.1926,4.1933,4.1936,4.199,4.193,4.1932,4.1934,4.1935,4.2106,4.2109,0,0,0,0,0,0,4.1929,4.193,4.1972,4.1972,4.1927,4.1931,4.1931,4.1943,4.1939,4.1936,4.1922,4.1917,4.193,4.1933,4.1936,4.2019,4.1933,4.1935,4.1937,4.2103,4.2107,4.211,0,0,0,0,0,0,4.1928,4.1934,4.1971,4.195,4.1954,4.1935,4.1949,4.1945,4.1952,4.1938,4.1935,4.1933,4.1928,4.1932,4.1978,4.2019,4.1936,4.1939,4.21,4.2104,4.2108,4.2184,0,0,0,0,0,0,4.1927,4.1933,4.1957,4.1951,4.1955,4.2011,4.1952,4.1947,4.1957,4.195,4.1948,4.1946,4.1926,4.1974,4.198,4.2021,4.1941,4.2096,4.2102,4.2107,4.2178,4.2191,4.2202,0,0,0,0,0,4.1925,4.1977,4.1959,4.1964,4.1984,4.2014,4.2016,4.1992,4.196,4.1986,4.1978,4.1946,4.2013,4.1979,4.1986,4.2028,4.2093,4.21,4.2107,4.2173,4.2188,4.2201,0,0,0,0,0,0,4.1988,4.1976,4.1955,4.2006,4.2012,4.2003,4.2034,4.2009,4.2024,4.2017,4.1988,4.1988,4.204,4.2038,4.2,4.2096,4.2048,4.2056,4.2096,4.211,4.2122,4.2123,4.1943,0,0,0,0,0,4.2008,4.2032,4.202,4.2067,4.2071,4.2053,4.2064,4.2046,4.2051,4.2053,4.2048,4.2055,4.2078,4.2093,4.2113,4.2177,4.2179,4.221,4.2222,4.2231,4.224,4.2279,4.2295,4.2132,4.2131,4.2131,0,0,4.205,4.2046,4.2062,4.208,4.2082,4.211,4.2054,4.2085,4.2107,4.2057,4.2101,4.2099,4.2105,4.2161,4.2186,4.2161,4.2285,4.224,4.2247,4.2251,4.2288,4.2303,4.2317,4.2136,4.2135,4.2134,0,0,4.2141,4.2138,4.218,4.2184,4.2188,4.2176,4.2186,4.2183,4.218,4.2223,4.2189,4.2215,4.2253,4.2261,4.227,4.237,4.2343,4.2377,4.244,4.2479,4.2492,4.2503,4.2544,4.2558,4.2385,4.2385,4.2385,0,4.2192,4.2231,4.2204,4.2239,4.225,4.2207,4.2252,4.2257,4.2268,4.2278,4.225,4.2302,4.2302,4.2363,4.2388,4.2395,4.241,4.2378,4.2492,4.2503,4.2513,4.2552,4.2566,4.239,4.2389,4.2389,4.2388,0,4.2297,4.2326,4.2359,4.2372,4.2387,4.2426,4.2408,4.2426,4.2407,4.24,4.2448,4.2448,4.247,4.2482,4.2463,4.2543,4.2528,4.2496,4.2447,4.2534,4.257,4.2584,4.2396,4.2394,4.2393,4.2392,0,0,4.2426,4.2427,4.2441,4.2449,4.2452,4.2475,4.2515,4.2536,4.2555,4.2565,4.2601,4.2637,4.261,4.262,4.2602,4.2636,4.2722,4.2601,4.2601,4.2628,4.2816,4.2843,4.286,4.2704,4.2706,4.2708,4.2817,0,4.2519,4.2585,4.2565,4.2633,4.2662,4.2625,4.266,4.2668,4.2663,4.2689,4.2683,4.2711,4.267,4.2677,4.2709,4.2705,4.276,4.2696,4.2741,4.2742,4.2744,4.2877,4.2904,4.3007,4.283,4.2833,4.2834,0,4.2635,4.2652,4.2724,4.2728,4.2739,4.2771,4.2793,4.2816,4.2827,4.2821,4.2836,4.2813,4.2855,4.2805,4.2866,4.2824,4.2841,4.2842,4.2846,4.2851,4.2796,4.2891,4.3038,4.3055,4.2855,4.2853,4.2852,0,4.2728,4.2768,4.2818,4.2826,4.283,4.2855,4.2858,4.2866,4.2882,4.2902,4.2913,4.2937,4.2951,4.2972,4.2958,4.2921,4.3024,4.297,4.3024,4.3025,4.3049,4.3048,4.3205,4.3054,4.3053,4.3053,4.3053,0,4.2835,4.2882,4.2861,4.2892,4.2945,4.2922,4.2976,4.2975,4.2983,4.3016,4.2984,4.3016,4.2993,4.3025,4.3013,4.307,4.3075,4.3074,4.3072,4.3079,4.308,4.3092,4.3086,4.3057,4.3056,4.3055,4.3055,0,4.2949,4.2936,4.2989,4.2991,4.2992,4.3032,4.3035,4.3065,4.3059,4.3101,4.311,4.3101,4.3137,4.3124,4.3161,4.3154,4.3227,4.3213,4.3224,4.3222,4.3278,4.3275,4.345,4.3475,4.3304,4.3306,4.3307,0,4.302,4.3055,4.3062,4.3082,4.3088,4.312,4.3137,4.3117,4.3138,4.3155,4.3185,4.3218,4.3243,4.3303,4.3301,4.3331,4.332,4.338,4.3324,4.3333,4.3327,4.3326,4.3332,4.3392,4.3394,4.3395,4.3397,0,4.3149,4.3142,4.3168,4.3194,4.3217,4.3236,4.3252,4.3271,4.3252,4.3277,4.3314,4.3334,4.3374,4.3409,4.3437,4.3443,4.3419,4.3414,4.3429,4.3439,4.3446,4.3448,4.3259,4.341,4.3409,4.3408,4.3407,4.3407,4.3246,4.3278,4.329,4.3322,4.3333,4.335,4.3381,4.338,4.3409,4.3441,4.3427,4.3471,4.3486,4.3521,4.3532,4.3568,4.3545,4.3565,4.3571,4.3577,4.3587,4.3438,4.3572,4.3572,4.3571,4.3571,4.3571,0,4.3378,4.3384,4.3414,4.3439,4.3466,4.344,4.3458,4.3483,4.3522,4.3537,4.3564,4.3609,4.3644,4.3646,4.368,4.3709,4.3699,4.3719,4.3718,4.3722,4.3603,4.3589,4.3727,4.3727,4.3727,4.3727,4.3727,4.3726,4.3449,4.3504,4.35,4.3562,4.3568,4.361,4.3624,4.3642,4.3655,4.3707,4.3736,4.3737,4.3749,4.3784,4.3817,4.3817,4.3833,4.3858,4.3855,4.3744,4.3729,4.3714,4.3701,4.3861,4.3861,4.3971,4.3972,4.3973]},{"header":{"parameterUnit":"m.s-1","parameterCategory":1,"la1":30.2991,"la2":30.254,"lo1":-89.0895,"lo2":-89.0444,"dy":0.0017,"dx":0.0017,"nx":28,"ny":28,"refTime":"2026-02-05T09:00:00:Z","depth":0,"parameterNumber":3,"parameterNumberName":"V-component_of_WINDS"},"data":[0,0,0,0,0,0,0,0,0,0,0,0,0,0,0,0,0,0,0,0,0,0,0,0,0,0,0,0,0,0,0,0,0,0,0,0,0,0,0,0,0,0,0,0,0,0,0,0,0,0,0,0,0,0,0,0,0,0,1.6034,1.6036,0,1.6153,1.6154,1.6156,1.6166,1.6165,1.6164,1.6162,1.6283,1.6287,1.6291,0,0,0,0,0,0,0,0,0,0,0,0,0,1.5815,1.5819,1.6034,1.6036,1.6037,1.6153,1.6154,1.6156,1.6166,1.6165,1.6163,1.6162,1.6281,1.6286,1.6292,0,0,0,0,0,0,0,0,0,0,0,0,0,1.5919,1.582,1.6034,1.6056,1.606,1.6152,1.6154,1.6156,1.6167,1.6165,1.6163,1.6161,1.628,1.6286,1.6292,1.6371,0,0,1.6312,1.6315,0,0,0,0,0,0,0,0,1.5913,1.5927,1.6052,1.6055,1.6059,1.6143,1.6121,1.6228,1.6167,1.6126,1.6162,1.616,1.6238,1.6247,1.6274,1.6376,1.6382,1.6313,1.6317,1.632,1.6322,0,0,0,0,0,0,0,1.5906,1.5922,1.6081,1.6053,1.6058,1.606,1.6072,1.6141,1.6191,1.6129,1.613,1.6144,1.6239,1.6267,1.6277,1.6383,1.6313,1.6319,1.6323,1.6325,1.6553,1.6555,0,0,0,0,0,0,1.5895,1.5916,1.6077,1.6085,1.598,1.6065,1.6079,1.6118,1.619,1.6199,1.6146,1.6144,1.6257,1.6269,1.6281,1.6376,1.632,1.6326,1.633,1.6551,1.6553,1.6556,0,0,0,0,0,0,1.589,1.5909,1.6073,1.6001,1.6022,1.6071,1.6114,1.6121,1.6149,1.6203,1.6211,1.6166,1.6256,1.6272,1.6348,1.638,1.6329,1.6335,1.6548,1.6552,1.6554,1.6566,0,0,0,0,0,0,1.5884,1.5907,1.5938,1.6001,1.6026,1.6138,1.6116,1.6125,1.6161,1.616,1.6224,1.6232,1.6256,1.6338,1.6354,1.6388,1.634,1.6546,1.655,1.6553,1.6563,1.6569,1.6575,0,0,0,0,0,1.5876,1.5937,1.594,1.5959,1.6065,1.614,1.6154,1.618,1.6163,1.6194,1.6228,1.623,1.6374,1.6346,1.6364,1.64,1.6544,1.6549,1.6553,1.6561,1.6568,1.6575,0,0,0,0,0,0,1.5877,1.5946,1.595,1.6034,1.6081,1.6142,1.6182,1.6188,1.624,1.6237,1.6267,1.6281,1.6356,1.6386,1.6353,1.6478,1.6457,1.6466,1.6456,1.6464,1.6469,1.646,1.6345,0,0,0,0,0,1.5887,1.5942,1.6,1.6068,1.6091,1.6132,1.6166,1.6182,1.6232,1.6252,1.6292,1.6339,1.6395,1.6431,1.6486,1.6568,1.658,1.6601,1.6607,1.6612,1.6618,1.6661,1.6671,1.6571,1.6571,1.6571,0,0,1.5908,1.5953,1.5986,1.6069,1.6108,1.6163,1.6149,1.621,1.6251,1.6261,1.6335,1.6365,1.6421,1.6499,1.6536,1.6526,1.6649,1.6618,1.6621,1.6625,1.6667,1.6677,1.6685,1.6574,1.6574,1.6573,0,0,1.5975,1.6015,1.6075,1.6114,1.6172,1.6199,1.6213,1.6273,1.6293,1.6368,1.6376,1.6425,1.6521,1.6559,1.6592,1.667,1.6674,1.6687,1.6717,1.6759,1.6766,1.6774,1.68,1.6809,1.6694,1.6694,1.6694,0,1.5994,1.6079,1.6106,1.6165,1.62,1.6212,1.6272,1.6308,1.6381,1.6405,1.6394,1.6512,1.6551,1.6637,1.6656,1.6683,1.6698,1.668,1.6763,1.6771,1.6778,1.6803,1.6813,1.6695,1.6695,1.6695,1.6695,0,1.6098,1.6157,1.6198,1.6268,1.6308,1.6368,1.6402,1.644,1.6451,1.6479,1.6553,1.6599,1.6662,1.6683,1.6696,1.6771,1.6763,1.6757,1.6736,1.6788,1.6812,1.6822,1.6697,1.6696,1.6696,1.6696,0,0,1.6169,1.6252,1.6267,1.6297,1.6362,1.6407,1.6466,1.6528,1.6558,1.6607,1.6657,1.6736,1.673,1.6767,1.6783,1.682,1.6877,1.6809,1.6811,1.6819,1.696,1.6963,1.6974,1.688,1.6882,1.6883,1.6954,0,1.6242,1.6348,1.6373,1.6464,1.6517,1.6528,1.6579,1.6623,1.665,1.6698,1.6727,1.6783,1.6772,1.6793,1.683,1.6862,1.6905,1.6858,1.6924,1.6926,1.6909,1.6987,1.6991,1.7056,1.6964,1.6966,1.6967,0,1.6342,1.6392,1.6488,1.6544,1.6567,1.6613,1.6669,1.6716,1.6766,1.6782,1.6821,1.6834,1.6894,1.687,1.6952,1.6919,1.6948,1.6967,1.697,1.6977,1.6949,1.6994,1.7078,1.7087,1.6983,1.6981,1.698,0,1.6381,1.6474,1.6543,1.6569,1.6636,1.6667,1.6697,1.6744,1.6779,1.6828,1.6851,1.6907,1.6937,1.6979,1.7005,1.6986,1.7085,1.7064,1.7099,1.7098,1.7118,1.7117,1.7207,1.7139,1.7139,1.7139,1.7138,0,1.6459,1.6517,1.6562,1.6604,1.6668,1.6695,1.6758,1.6787,1.6829,1.6876,1.6889,1.6932,1.6965,1.7013,1.7034,1.7097,1.7111,1.7125,1.713,1.7123,1.7121,1.7142,1.7137,1.7141,1.7141,1.714,1.714,0,1.6515,1.6547,1.6622,1.6679,1.6695,1.6739,1.6787,1.6828,1.6854,1.6913,1.6928,1.6969,1.7026,1.7056,1.7127,1.7141,1.7211,1.7215,1.7195,1.7196,1.7229,1.7225,1.7335,1.7349,1.7273,1.7274,1.7274,0,1.6562,1.6606,1.6667,1.67,1.6729,1.6782,1.6816,1.6845,1.688,1.6939,1.6972,1.7029,1.7076,1.7165,1.7201,1.7254,1.7257,1.7292,1.7266,1.7257,1.7256,1.7252,1.7256,1.7296,1.7297,1.7298,1.7298,0,1.6641,1.6654,1.6704,1.676,1.6801,1.6846,1.6891,1.6916,1.6951,1.699,1.7048,1.7085,1.7156,1.7212,1.7268,1.7296,1.7302,1.7306,1.7317,1.731,1.7296,1.7302,1.7206,1.7303,1.7303,1.7302,1.7302,1.7302,1.6692,1.6731,1.678,1.6835,1.6871,1.6912,1.6952,1.6983,1.7032,1.7093,1.7106,1.7166,1.7212,1.7288,1.7318,1.7365,1.7358,1.7374,1.7378,1.7381,1.7381,1.7289,1.7375,1.7375,1.7375,1.7375,1.7375,0,1.677,1.6802,1.6852,1.6914,1.6956,1.6959,1.7007,1.7043,1.7096,1.7139,1.7184,1.7249,1.7303,1.7342,1.7396,1.7426,1.743,1.7439,1.7436,1.7442,1.7385,1.737,1.7435,1.7435,1.7435,1.7435,1.7435,1.7435,1.6816,1.6882,1.6901,1.6984,1.7015,1.7074,1.7101,1.7138,1.7172,1.7245,1.7289,1.7315,1.7355,1.7412,1.7461,1.7471,1.7489,1.7498,1.7508,1.7453,1.7447,1.7441,1.7426,1.7502,1.7502,1.7561,1.7562,1.7562]}]]